29/04/2024 17:30:00,0.992
29/04/2024 17:45:00,0.994
29/04/2024 18:00:00,0.994
29/04/2024 18:15:00,0.995
29/04/2024 18:30:00,0.994
29/04/2024 18:45:00,0.994
29/04/2024 19:00:00,0.993
29/04/2024 19:15:00,0.992
29/04/2024 19:30:00,0.994
29/04/2024 19:45:00,0.994
29/04/2024 20:00:00,0.992
29/04/2024 20:15:00,0.991
29/04/2024 20:30:00,0.993
29/04/2024 20:45:00,0.993
29/04/2024 21:00:00,0.991
29/04/2024 21:15:00,0.993
29/04/2024 21:30:00,0.994
29/04/2024 21:45:00,0.992
29/04/2024 22:00:00,0.992
29/04/2024 22:15:00,0.991
29/04/2024 22:30:00,0.994
29/04/2024 22:45:00,0.993
29/04/2024 23:00:00,0.993
29/04/2024 23:15:00,0.992
29/04/2024 23:30:00,0.994
29/04/2024 23:45:00,0.996
30/04/2024 00:00:00,0.995
30/04/2024 00:15:00,0.998
30/04/2024 00:30:00,0.998
30/04/2024 00:45:00,1
30/04/2024 01:00:00,1.003
30/04/2024 01:15:00,1.003
30/04/2024 01:30:00,1.006
30/04/2024 01:45:00,1.009
30/04/2024 02:00:00,1.012
30/04/2024 02:15:00,1.018
30/04/2024 02:30:00,1.024
30/04/2024 02:45:00,1.033
30/04/2024 03:00:00,1.042
30/04/2024 03:15:00,1.05
30/04/2024 03:30:00,1.055
30/04/2024 03:45:00,1.06
30/04/2024 04:00:00,1.063
30/04/2024 04:15:00,1.067
30/04/2024 04:30:00,1.07
30/04/2024 04:45:00,1.073
30/04/2024 05:00:00,1.078
30/04/2024 05:15:00,1.081
30/04/2024 05:30:00,1.091
30/04/2024 05:45:00,1.107
30/04/2024 06:00:00,1.13
30/04/2024 06:15:00,1.157
30/04/2024 06:30:00,1.178
30/04/2024 06:45:00,1.192
30/04/2024 07:00:00,1.199
30/04/2024 07:15:00,1.202
30/04/2024 07:30:00,1.203
30/04/2024 07:45:00,1.204
30/04/2024 08:00:00,1.202
30/04/2024 08:15:00,1.202
30/04/2024 08:30:00,1.199
30/04/2024 08:45:00,1.201
30/04/2024 09:00:00,1.2
30/04/2024 09:15:00,1.2
30/04/2024 09:30:00,1.208
30/04/2024 09:45:00,1.219
30/04/2024 10:00:00,1.236
30/04/2024 10:15:00,1.261
30/04/2024 10:30:00,1.277
30/04/2024 10:45:00,1.288
30/04/2024 11:00:00,1.296
30/04/2024 11:15:00,1.304
30/04/2024 11:30:00,1.308
30/04/2024 11:45:00,1.305
30/04/2024 12:00:00,1.304
30/04/2024 12:15:00,1.306
30/04/2024 12:30:00,1.305
30/04/2024 12:45:00,1.305
30/04/2024 13:00:00,1.303
30/04/2024 13:15:00,1.298
30/04/2024 13:30:00,1.295
30/04/2024 13:45:00,1.293
30/04/2024 14:00:00,1.293
30/04/2024 14:15:00,1.288
30/04/2024 14:30:00,1.281
30/04/2024 14:45:00,1.278
30/04/2024 15:00:00,1.27
30/04/2024 15:15:00,1.269
30/04/2024 15:30:00,1.264
30/04/2024 15:45:00,1.262
30/04/2024 16:00:00,1.255
30/04/2024 16:15:00,1.251
30/04/2024 16:30:00,1.247
30/04/2024 16:45:00,1.246
30/04/2024 17:00:00,1.242
30/04/2024 17:15:00,1.235
30/04/2024 17:30:00,1.236
30/04/2024 17:45:00,1.232
30/04/2024 18:00:00,1.229
30/04/2024 18:15:00,1.227
30/04/2024 18:30:00,1.223
30/04/2024 18:45:00,1.222
30/04/2024 19:00:00,1.219
30/04/2024 19:15:00,1.214
30/04/2024 19:30:00,1.213
30/04/2024 19:45:00,1.21
30/04/2024 20:00:00,1.208
30/04/2024 20:15:00,1.205
30/04/2024 20:30:00,1.203
30/04/2024 20:45:00,1.201
30/04/2024 21:00:00,1.195
30/04/2024 21:15:00,1.194
30/04/2024 21:30:00,1.192
30/04/2024 21:45:00,1.188
30/04/2024 22:00:00,1.187
30/04/2024 22:15:00,1.184
30/04/2024 22:30:00,1.182
30/04/2024 22:45:00,1.178
30/04/2024 23:00:00,1.176
30/04/2024 23:15:00,1.173
30/04/2024 23:30:00,1.172
30/04/2024 23:45:00,1.17
01/05/2024 00:00:00,1.167
01/05/2024 00:15:00,1.164
01/05/2024 00:30:00,1.161
01/05/2024 00:45:00,1.159
01/05/2024 01:00:00,1.157
01/05/2024 01:15:00,1.153
01/05/2024 01:30:00,1.152
01/05/2024 01:45:00,1.149
01/05/2024 02:00:00,1.149
01/05/2024 02:15:00,1.146
01/05/2024 02:30:00,1.143
01/05/2024 02:45:00,1.142
01/05/2024 03:00:00,1.14
01/05/2024 03:15:00,1.139
01/05/2024 03:30:00,1.137
01/05/2024 03:45:00,1.138
01/05/2024 04:00:00,1.134
01/05/2024 04:15:00,1.133
01/05/2024 04:30:00,1.132
01/05/2024 04:45:00,1.131
01/05/2024 05:00:00,1.13
01/05/2024 05:15:00,1.128
01/05/2024 05:30:00,1.126
01/05/2024 05:45:00,1.125
01/05/2024 06:00:00,1.125
01/05/2024 06:15:00,1.122
01/05/2024 06:30:00,1.122
01/05/2024 06:45:00,1.121
01/05/2024 07:00:00,1.119
01/05/2024 07:15:00,1.12
01/05/2024 07:30:00,1.117
01/05/2024 07:45:00,1.116
01/05/2024 08:00:00,1.115
01/05/2024 08:15:00,1.114
01/05/2024 08:30:00,1.113
01/05/2024 08:45:00,1.112
01/05/2024 09:00:00,1.11
01/05/2024 09:15:00,1.11
01/05/2024 09:30:00,1.108
01/05/2024 09:45:00,1.107
01/05/2024 10:00:00,1.106
01/05/2024 10:15:00,1.105
01/05/2024 10:30:00,1.104
01/05/2024 10:45:00,1.102
01/05/2024 11:00:00,1.101
01/05/2024 11:15:00,1.101
01/05/2024 11:30:00,1.099
01/05/2024 11:45:00,1.099
01/05/2024 12:00:00,1.098
01/05/2024 12:15:00,1.097
01/05/2024 12:30:00,1.097
01/05/2024 12:45:00,1.095
01/05/2024 13:00:00,1.093
01/05/2024 13:15:00,1.092
01/05/2024 13:30:00,1.09
01/05/2024 13:45:00,1.091
01/05/2024 14:00:00,1.089
01/05/2024 14:15:00,1.088
01/05/2024 14:30:00,1.085
01/05/2024 14:45:00,1.085
01/05/2024 15:00:00,1.086
01/05/2024 15:15:00,1.084
01/05/2024 15:30:00,1.083
01/05/2024 15:45:00,1.082
01/05/2024 16:00:00,1.081
01/05/2024 16:15:00,1.081
01/05/2024 16:30:00,1.081
01/05/2024 16:45:00,1.079
01/05/2024 17:00:00,1.08
01/05/2024 17:15:00,1.077
01/05/2024 17:30:00,1.077
01/05/2024 17:45:00,1.076
01/05/2024 18:00:00,1.076
01/05/2024 18:15:00,1.074
01/05/2024 18:30:00,1.073
01/05/2024 18:45:00,1.072
01/05/2024 19:00:00,1.071
01/05/2024 19:15:00,1.07
01/05/2024 19:30:00,1.068
01/05/2024 19:45:00,1.068
01/05/2024 20:00:00,1.068
01/05/2024 20:15:00,1.067
01/05/2024 20:30:00,1.066
01/05/2024 20:45:00,1.066
01/05/2024 21:00:00,1.066
01/05/2024 21:15:00,1.065
01/05/2024 21:30:00,1.064
01/05/2024 21:45:00,1.063
01/05/2024 22:00:00,1.063
01/05/2024 22:15:00,1.063
01/05/2024 22:30:00,1.063
01/05/2024 22:45:00,1.062
01/05/2024 23:00:00,1.061
01/05/2024 23:15:00,1.062
01/05/2024 23:30:00,1.061
01/05/2024 23:45:00,1.06
02/05/2024 00:00:00,1.061
02/05/2024 00:15:00,1.059
02/05/2024 00:30:00,1.059
02/05/2024 00:45:00,1.058
02/05/2024 01:00:00,1.059
02/05/2024 01:15:00,1.058
02/05/2024 01:30:00,1.057
02/05/2024 01:45:00,1.059
02/05/2024 02:00:00,1.058
02/05/2024 02:15:00,1.057
02/05/2024 02:30:00,1.056
02/05/2024 02:45:00,1.056
02/05/2024 03:00:00,1.055
02/05/2024 03:15:00,1.056
02/05/2024 03:30:00,1.056
02/05/2024 03:45:00,1.056
02/05/2024 04:00:00,1.055
02/05/2024 04:15:00,1.055
02/05/2024 04:30:00,1.054
02/05/2024 04:45:00,1.055
02/05/2024 05:00:00,1.055
02/05/2024 05:15:00,1.053
02/05/2024 05:30:00,1.052
02/05/2024 05:45:00,1.053
02/05/2024 06:00:00,1.053
02/05/2024 06:15:00,1.053
02/05/2024 06:30:00,1.052
02/05/2024 06:45:00,1.051
02/05/2024 07:00:00,1.051
02/05/2024 07:15:00,1.051
02/05/2024 07:30:00,1.05
02/05/2024 07:45:00,1.05
02/05/2024 08:00:00,1.049
02/05/2024 08:15:00,1.05
02/05/2024 08:30:00,1.049
02/05/2024 08:45:00,1.05
02/05/2024 09:00:00,1.049
02/05/2024 09:15:00,1.049
02/05/2024 09:30:00,1.049
02/05/2024 09:45:00,1.048
02/05/2024 10:00:00,1.049
02/05/2024 10:15:00,1.048
02/05/2024 10:30:00,1.048
02/05/2024 10:45:00,1.047
02/05/2024 11:00:00,1.045
02/05/2024 11:15:00,1.048
02/05/2024 11:30:00,1.046
02/05/2024 11:45:00,1.045
02/05/2024 12:00:00,1.047
02/05/2024 12:15:00,1.048
02/05/2024 12:30:00,1.049
02/05/2024 12:45:00,1.052
02/05/2024 13:00:00,1.047
02/05/2024 13:15:00,1.047
02/05/2024 13:30:00,1.045
02/05/2024 13:45:00,1.049
02/05/2024 14:00:00,1.046
02/05/2024 14:15:00,1.046
02/05/2024 14:30:00,1.047
02/05/2024 14:45:00,1.046
02/05/2024 15:00:00,1.047
02/05/2024 15:15:00,1.047
02/05/2024 15:30:00,1.047
02/05/2024 15:45:00,1.047
02/05/2024 16:00:00,1.046
02/05/2024 16:15:00,1.044
02/05/2024 16:30:00,1.046
02/05/2024 16:45:00,1.045
02/05/2024 17:00:00,1.041
02/05/2024 17:15:00,1.044
02/05/2024 17:30:00,1.042
02/05/2024 17:45:00,1.041
02/05/2024 18:00:00,1.042
02/05/2024 18:15:00,1.04
02/05/2024 18:30:00,1.038
02/05/2024 18:45:00,1.04
02/05/2024 19:00:00,1.038
02/05/2024 19:15:00,1.037
02/05/2024 19:30:00,1.038
02/05/2024 19:45:00,1.037
02/05/2024 20:00:00,1.037
02/05/2024 20:15:00,1.036
02/05/2024 20:30:00,1.036
02/05/2024 20:45:00,1.034
02/05/2024 21:00:00,1.035
02/05/2024 21:15:00,1.033
02/05/2024 21:30:00,1.033
02/05/2024 21:45:00,1.032
02/05/2024 22:00:00,1.031
02/05/2024 22:15:00,1.032
02/05/2024 22:30:00,1.03
02/05/2024 22:45:00,1.032
02/05/2024 23:00:00,1.032
02/05/2024 23:15:00,1.032
02/05/2024 23:30:00,1.032
02/05/2024 23:45:00,1.033
03/05/2024 00:00:00,1.032
03/05/2024 00:15:00,1.031
03/05/2024 00:30:00,1.031
03/05/2024 00:45:00,1.03
03/05/2024 01:00:00,1.028
03/05/2024 01:15:00,1.028
03/05/2024 01:30:00,1.027
03/05/2024 01:45:00,1.025
03/05/2024 02:00:00,1.024
03/05/2024 02:15:00,1.023
03/05/2024 02:30:00,1.022
03/05/2024 02:45:00,1.022
03/05/2024 03:00:00,1.022
03/05/2024 03:15:00,1.021
03/05/2024 03:30:00,1.02
03/05/2024 03:45:00,1.02
03/05/2024 04:00:00,1.018
03/05/2024 04:15:00,1.019
03/05/2024 04:30:00,1.018
03/05/2024 04:45:00,1.016
03/05/2024 05:00:00,1.016
03/05/2024 05:15:00,1.015
03/05/2024 05:30:00,1.016
03/05/2024 05:45:00,1.014
03/05/2024 06:00:00,1.013
03/05/2024 06:15:00,1.014
03/05/2024 06:30:00,1.013
03/05/2024 06:45:00,1.013
03/05/2024 07:00:00,1.012
03/05/2024 07:15:00,1.014
03/05/2024 07:30:00,1.013
03/05/2024 07:45:00,1.012
03/05/2024 08:00:00,1.012
03/05/2024 08:15:00,1.013
03/05/2024 08:30:00,1.011
03/05/2024 08:45:00,1.013
03/05/2024 09:00:00,1.012
03/05/2024 09:15:00,1.012
03/05/2024 09:30:00,1.013
03/05/2024 09:45:00,1.011
03/05/2024 10:00:00,1.013
03/05/2024 10:15:00,1.011
03/05/2024 10:30:00,1.013
03/05/2024 10:45:00,1.012
03/05/2024 11:00:00,1.013
03/05/2024 11:15:00,1.012
03/05/2024 11:30:00,1.014
03/05/2024 11:45:00,1.013
03/05/2024 12:00:00,1.014
03/05/2024 12:15:00,1.013
03/05/2024 12:30:00,1.014
03/05/2024 12:45:00,1.014
03/05/2024 13:00:00,1.015
03/05/2024 13:15:00,1.016
03/05/2024 13:30:00,1.016
03/05/2024 13:45:00,1.017
03/05/2024 14:00:00,1.017
03/05/2024 14:15:00,1.017
03/05/2024 14:30:00,1.018
03/05/2024 14:45:00,1.017
03/05/2024 15:00:00,1.016
03/05/2024 15:15:00,1.018
03/05/2024 15:30:00,1.019
03/05/2024 15:45:00,1.018
03/05/2024 16:00:00,1.017
03/05/2024 16:15:00,1.017
03/05/2024 16:30:00,1.017
03/05/2024 16:45:00,1.017
03/05/2024 17:00:00,1.016
03/05/2024 17:15:00,1.017
03/05/2024 17:30:00,1.016
03/05/2024 17:45:00,1.015
03/05/2024 18:00:00,1.015
03/05/2024 18:15:00,1.014
03/05/2024 18:30:00,1.015
03/05/2024 18:45:00,1.014
03/05/2024 19:00:00,1.013
03/05/2024 19:15:00,1.014
03/05/2024 19:30:00,1.012
03/05/2024 19:45:00,1.012
03/05/2024 20:00:00,1.011
03/05/2024 20:15:00,1.012
03/05/2024 20:30:00,1.011
03/05/2024 20:45:00,1.009
03/05/2024 21:00:00,1.01
03/05/2024 21:15:00,1.009
03/05/2024 21:30:00,1.009
03/05/2024 21:45:00,1.009
03/05/2024 22:00:00,1.007
03/05/2024 22:15:00,1.007
03/05/2024 22:30:00,1.007
03/05/2024 22:45:00,1.006
03/05/2024 23:00:00,1.005
03/05/2024 23:15:00,1.004
03/05/2024 23:30:00,1.003
03/05/2024 23:45:00,1.003
04/05/2024 00:00:00,1.002
04/05/2024 00:15:00,1.002
04/05/2024 00:30:00,1.002
04/05/2024 00:45:00,1
04/05/2024 01:00:00,1
04/05/2024 01:15:00,1
04/05/2024 01:30:00,1
04/05/2024 01:45:00,0.998
04/05/2024 02:00:00,0.998
04/05/2024 02:15:00,0.998
04/05/2024 02:30:00,0.998
04/05/2024 02:45:00,0.996
04/05/2024 03:00:00,0.996
04/05/2024 03:15:00,0.995
04/05/2024 03:30:00,0.994
04/05/2024 03:45:00,0.995
04/05/2024 04:00:00,0.993
04/05/2024 04:15:00,0.993
04/05/2024 04:30:00,0.993
04/05/2024 04:45:00,0.992
04/05/2024 05:00:00,0.992
04/05/2024 05:15:00,0.991
04/05/2024 05:30:00,0.991
04/05/2024 05:45:00,0.99
04/05/2024 06:00:00,0.99
04/05/2024 06:15:00,0.99
04/05/2024 06:30:00,0.989
04/05/2024 06:45:00,0.989
04/05/2024 07:00:00,0.99
04/05/2024 07:15:00,0.988
04/05/2024 07:30:00,0.987
04/05/2024 07:45:00,0.987
04/05/2024 08:00:00,0.987
04/05/2024 08:15:00,0.988
04/05/2024 08:30:00,0.987
04/05/2024 08:45:00,0.987
04/05/2024 09:00:00,0.987
04/05/2024 09:15:00,0.987
04/05/2024 09:30:00,0.986
04/05/2024 09:45:00,0.987
04/05/2024 10:00:00,0.987
04/05/2024 10:15:00,0.987
04/05/2024 10:30:00,0.988
04/05/2024 10:45:00,0.987
04/05/2024 11:00:00,0.987
04/05/2024 11:15:00,0.986
04/05/2024 11:30:00,0.986
04/05/2024 11:45:00,0.987
04/05/2024 12:00:00,0.987
04/05/2024 12:15:00,0.986
04/05/2024 12:30:00,0.987
04/05/2024 12:45:00,0.987
04/05/2024 13:00:00,0.987
04/05/2024 13:15:00,0.987
04/05/2024 13:30:00,0.986
04/05/2024 13:45:00,0.986
04/05/2024 14:00:00,0.987
04/05/2024 14:15:00,0.986
04/05/2024 14:30:00,0.987
04/05/2024 14:45:00,0.988
04/05/2024 15:00:00,0.987
04/05/2024 15:15:00,0.987
04/05/2024 15:30:00,0.987
04/05/2024 15:45:00,0.987
